Flag for Switzerland Weather past 2 weeks in Arth, Schwyz, Switzerland

Now
30 °F

Chilly.


Feels Like: 30 °F
Forecast: 20 / 42 °F
Wind: 2 mph from Southeast

Location: Altdorf

Current Time: Mar 7, 2015 at 5:31:52 AM

Latest Report: Mar 7, 2015 at 3:00 AM


Visibility: N/A

Pressure: 30.62 "Hg

Humidity: 86%

Dew point: 26 °F

Location of ArthLocation

Historic Weather in Arth — Graph

°F

Arth temperature yesterday

Maximum temperature yesterday: 45 °F (at 3:00 PM)
Minimum temperature yesterday: 27 °F (at 4:00 AM)
Average temperature yesterday: 34 °F

Past Weeks' High & Low Weather Summary

 TemperatureHumidityPressure
High52 °F (Feb 21, 12:00 PM)96% (Feb 22, 3:00 AM)30.71 "Hg (Feb 22, 3:00 AM)
Low25 °F (Feb 20, 6:00 AM)18% (Feb 20, 8:00 PM)29.47 "Hg (Feb 21, 12:00 PM)
Average38 °F74%30.09 "Hg
* Reported Feb 20 3:00 AM — Mar 7 3:00 AM, Arth, Weather by CustomWeather, © 2015

Note: Actual official high and low records may vary slightly from our data, if they occured in-between our weather recording intervals... More about our weather records

Advertising

Arth weather history for previous 24 hours

 ConditionsComfort  
Time TempWeatherWind HumidityBarometerVisibility
3:00 AM
Sat, Mar 7
30 °FChilly.2 mph86%30.62 "HgN/A
2:00 AM28 °FChilly.2 mph88%30.61 "HgN/A
1:00 AM29 °FPassing clouds.3 mph86%30.61 "Hg16 mi
12:00 AM31 °FChilly.3 mph81%30.62 "HgN/A
11:00 PM
Fri, Mar 6
34 °FChilly.3 mph76%30.63 "HgN/A
9:00 PM35 °FChilly.1 mph69%30.63 "HgN/A
8:00 PM36 °FChilly.3 mph67%30.62 "HgN/A
7:00 PM35 °FPassing clouds.3 mph70%30.63 "Hg16 mi
6:00 PM39 °FChilly.7 mph62%30.60 "HgN/A
5:00 PM38 °FChilly.2 mph65%30.60 "HgN/A
4:00 PM44 °FSunny.2 mph44%30.59 "Hg16 mi
3:00 PM45 °FQuite cool.6 mph47%30.59 "HgN/A
2:00 PM43 °FQuite cool.10 mph54%30.60 "HgN/A
1:00 PM41 °FSunny.6 mph47%30.64 "Hg17 mi
12:00 PM39 °FChilly.2 mph47%30.68 "HgN/A
11:00 AM38 °FChilly.5 mph56%30.68 "HgN/A
10:00 AM35 °FSunny.2 mph54%30.70 "Hg17 mi
9:00 AM33 °FChilly.1 mph59%30.70 "HgN/A
8:00 AM27 °FChilly.2 mph78%30.71 "HgN/A
7:00 AM28 °FSunny.3 mph72%30.70 "Hg12 mi
6:00 AM29 °FChilly.1 mph72%30.69 "HgN/A
5:00 AM28 °FChilly.2 mph74%30.70 "HgN/A
Weather by CustomWeather, © 2015

See weather overviewHow to use our weather pages